Find Starlink 6181

NORAD ID: 56888 Int'l Des: 2023-083 Owner: SPXS Country: US Constellation: starlink operational
LEOCIRCULAR

当前视图

正在加载3D地球...

About Starlink 6181

Starlink 6181 (NORAD 56888) is a starlink constellation satellite (v1.5) launched Jun 12, 2023 by SPXS of US. It operates in LEO, CIRCULAR orbit with a mass of 305.00 kg.

即将过境

Passes for default location (London). Set your location on the main map for personalized predictions.

高度历史

Loading altitude history...

两行轨道根数

1 56888U 23083N 26263.90266498 -.00000761 00000-0 -18122-4 0 9998
2 56888 43.0059 66.3210 0001518 269.0343 91.0335 15.27576463181443
Epoch: Sep 20, 2026 • Age: 17 hours

当前状态

高度 495.4 km
远地点 / 近地点 N/A
速度 7.62 km/s
星下点 -43.15°S, 115.48°E
发射日期 Jun 12, 2023
运行时间 3.2 years
类型 internet

技术详情

分类 Payload
质量 305.00 kg
干质量 290.00 kg
长度 0.20 m
跨度 9.00 m
形状 ? Box + pan
制造商 SPXS
平台类型 Starlink
阶段状态 In Orbit
所有者/国家 SPXS/US

Most Searched